Location: Zagreb
(45.8000°N, 16.0000°E)
Time: 01:03:13
(UTC+02:00)

Transit 2A Rocket - Pass Details

Date: 23 January 2022
Orbit: 592 x 909 km, 66.7° (Epoch: 26 May)

Event Time Altitude Azimuth Distance (km) Brightness Sun altitude
Rises 00:58:33 0° 325° (NW) 3,523 - -61.7°
Reaches altitude 10° 01:03:21 10° 359° (N) 2,531 - -61.3°
Maximum altitude 01:05:05 11° 16° (NNE) 2,417 - -61.2°
Drops below altitude 10° 01:06:48 10° 34° (NE) 2,480 - -61.0°
Sets 01:11:20 0° 68° (ENE) 3,330 - -60.6°
